Regional Weather Roundup
Issued by NWS

Home | Current Version | Previous Version | Text Only | Print | Product List | Glossary Off
Versions: 1 2 3 4 5 6 7 8 9 10 11 12 13 14 15 16 17 18 19 20 21 22 23 24 25 26 27 28 29 30 31 32 33 34 35 36 37 38 39 40 41 42 43 44 45 46 47 48 49 50

000
ASUS43 KLOT 220106
RWRIL

ILLINOIS REGIONAL WEATHER ROUNDUP
NATIONAL WEATHER SERVICE CHICAGO/ROMEOVILLE IL
800 PM CDT SUN SEP 21 2014

NOTE: "FAIR" INDICATES FEW OR NO CLOUDS BELOW 12,000 FEET WITH NO
SIGNIFICANT WEATHER AND/OR OBSTRUCTIONS TO VISIBILITY.

* THESE STATIONS ARE NOT UNDER NWS QUALITY CONTROL. THEY ALSO MAY NOT
  REPORT WEATHER SUCH AS PRECIPITATION OR FOG.

ILZ001-002-007-009-015-016-024-220200-
NORTHWEST ILLINOIS

CITY           SKY/WX    TMP DP  RH WIND       PRES   REMARKS
MOLINE         PTCLDY    61  51  70 NW7       30.12R
STERLING*      MOCLDY    61  46  59 N6        30.12R
SAVANNA*       CLEAR     58  47  67 N6        30.12R
$$

ILZ003-004-008-010-011-017-018-220200-
NORTH CENTRAL ILLINOIS

CITY           SKY/WX    TMP DP  RH WIND       PRES   REMARKS
ROCKFORD       PTCLDY    57  46  66 NW6       30.13R
FREEPORT*      CLEAR     52  47  82 NW5       30.14R
ROCHELLE*      PTCLDY    53  46  79 N6        30.12R
DE KALB*       PTCLDY    53  45  75 N7        30.11R
PERU*          MOCLDY    60  51  73 NW8       30.11R
$$

ILZ005-006-012>014-019>023-220200-
NORTHEAST ILLINOIS

CITY           SKY/WX    TMP DP  RH WIND       PRES   REMARKS
CHICAGO-OHARE  PTCLDY    60  49  66 N3        30.09R
CHICAGO-MIDWAY MOCLDY    60  49  66 N10       30.09R
AURORA         CLEAR     54  45  71 N6        30.10R
LANSING*       CLOUDY    58  49  72 N10       30.09R
JOLIET*        PTCLDY    58  50  74 NE6       30.11R
WAUKEGAN       CLEAR     52  44  74 N3        30.09R
DUPAGE AIRPORT PTCLDY    54  45  71 N6        30.09R
KANKAKEE*      CLOUDY    59  53  81 N7        30.09R
WHEELING       PTCLDY    57  47  69 NE7       30.11R
MORRIS*        PTCLDY    57  49  75 CALM      30.09R
ROMEOVILLE*    CLEAR     55  50  82 NE6       30.10R
NORTHERLY ISL    N/A     58  46  64 MISG        N/A
$$

LMZ740>746-220200-
SOUTHERN LAKE MICHIGAN

STATION/POSITION SKY/WX   TEMP    WIND        PRES    VSBY  WAVE
                          AIR SEA DIR/SP/G                  HT/PER
                          (F)     (DEG/KT/KT) (MB)    (MI)  (FT/S)
SOUTHERN BUOY              56 62  350/ 17/ 21 1018.3R         8/ 7
WAUKEGAN HARBOR            55     360/  8/ 13   N/A
HARRISON CRIB              58     360/ 23/ 27   N/A
BURNHAM HARBOR             58     350/ 15/ 17   N/A
CALUMET HARBOR             59     350/ 12/ 18 1017.7R
MICHIGAN CITY              57     350/ 25/ 30   N/A
MICHIGAN CITY 6N           58 64   10/ 17/ 23   N/A          10/ 8
ST. JOSEPH                 58 65  360/ 19/ 27   N/A           9/ 8
$$

ILZ025>027-034>036-040-047-049-050-058-095>099-220200-
WEST-CENTRAL ILLINOIS

CITY           SKY/WX    TMP DP  RH WIND       PRES   REMARKS
QUINCY         CLEAR     59  50  72 N8        30.15R
GALESBURG*     MOCLDY    56  51  84 W3        30.13R
MACOMB*        CLEAR     55  51  85 NW6       30.16R
JACKSONVILLE*  CLEAR     62  52  71 N8        30.14R
PITTSFIELD*    CLEAR     62  51  67 N10G16    30.15R
$$

ILZ028>032-037-038-041>044-048-051>054-059>061-220200-
CENTRAL ILLINOIS

CITY           SKY/WX    TMP DP  RH WIND       PRES   REMARKS
PONTIAC        MOCLDY    63  54  72 NW5       30.08R
DECATUR        CLEAR     62  50  64 NW9       30.09R
PEORIA         CLEAR     59  50  72 NW6       30.12R
LACON*         CLEAR     58  50  73 W5        30.10R
LINCOLN*       CLEAR     60  51  71 NW5       30.09R
SPRINGFIELD    MOCLDY    62  51  67 NW7       30.12R
TAYLORVILLE    PTCLDY    55  50  82 NW6       30.10R
$$

ILZ033-039-045-046-055>057-062-063-220200-
EAST-CENTRAL ILLINOIS

CITY           SKY/WX    TMP DP  RH WIND       PRES   REMARKS
CHAMPAIGN      CLEAR     58  51  78 NW9       30.08R
DANVILLE*      MOCLDY    59  52  76 W5        30.03R
RANTOUL*       CLEAR     61  49  65 NW7       30.08R
MATTOON        CLEAR     56  49  77 NW6       30.07R
PARIS*         CLEAR     57  52  82 NW5       30.07R
$$

ILZ079-100>102-220200-
SOUTHWEST ILLINOIS

CITY           SKY/WX    TMP DP  RH WIND       PRES   REMARKS
ALTON          CLEAR     64  46  52 NW9       30.11R
BELLEVILLE     CLEAR     66  50  56 W7        30.08R
CAHOKIA*       CLEAR     69  50  50 N12       30.10R
SPARTA*        CLEAR     66  50  56 NW7       30.09R
$$

ILZ064>066-069>071-074>076-080>082-084>086-088>090-092>094-220200-
SOUTH-CENTRAL ILLINOIS

CITY           SKY/WX    TMP DP  RH WIND       PRES   REMARKS
CARBONDALE     CLEAR     65  50  58 NW7       30.07R
CAIRO*         CLEAR     65  54  68 NW5       30.05R
EFFINGHAM*     CLEAR     63  47  57 N6        30.08R
MARION         CLEAR     70  50  49 N6        30.07R
MT. VERNON     PTCLDY    64  46  52 CALM      30.08R
CENTRALIA*     CLEAR     65  48  55 NW9       30.08R
SALEM*         FAIR      60  54  79 N5        30.08R
METROPOLIS*    CLEAR     66  53  61 N3        30.04R
$$

ILZ067-068-072-073-078-083-087-091-220200-
SOUTHEAST ILLINOIS

CITY           SKY/WX    TMP DP  RH WIND       PRES   REMARKS
LAWRENCEVILLE  CLEAR     61  51  70 N7        30.06R
FLORA*         CLEAR     63  50  63 N6        30.07R
FAIRFIELD*     CLEAR    N/A N/A N/A N5        30.06R
HARRISBURG*    CLEAR     66  51  57 NW5       30.07R
ROBINSON*      CLEAR     61  52  73 N6        30.07R
CARMI*         CLEAR     66  52  61 NW7       30.05R
$$

ABBREVIATIONS USED IN REMARKS
   TC - TEMPERATURE IN CELSIUS
  WCI - WIND CHILL INDEX
   HX - HEAT INDEX
  VSB - VISIBILITY
$$




USA.gov is the U.S. government's official web portal to all federal, state and local government web resources and services.